TimeCST,TemperatureF,Dew PointF,Humidity,Sea Level PressureIn,VisibilityMPH,Wind Direction,Wind SpeedMPH,Gust SpeedMPH,PrecipitationIn,Events,Conditions,WindDirDegrees,DateUTC
12:56 AM,34.0,32.0,92,29.95,10.0,WSW,3.5,-,N/A,,Clear,240,2014-02-14 06:56:00
1:56 AM,36.0,33.1,89,29.96,10.0,West,4.6,-,N/A,,Clear,260,2014-02-14 07:56:00
2:56 AM,36.0,33.1,89,29.97,10.0,WSW,3.5,-,N/A,,Clear,240,2014-02-14 08:56:00
3:56 AM,33.1,30.0,89,29.96,10.0,Calm,Calm,-,N/A,,Clear,0,2014-02-14 09:56:00
4:56 AM,30.9,28.0,89,29.97,10.0,Calm,Calm,-,N/A,,Clear,0,2014-02-14 10:56:00
5:56 AM,30.0,28.9,96,29.97,8.0,Calm,Calm,-,N/A,,Clear,0,2014-02-14 11:56:00
6:56 AM,30.9,28.9,92,29.98,6.0,Calm,Calm,-,N/A,,Clear,0,2014-02-14 12:56:00
7:56 AM,37.0,35.1,93,30.00,7.0,SSW,3.5,-,N/A,,Clear,200,2014-02-14 13:56:00
8:56 AM,45.0,39.0,80,29.98,10.0,South,3.5,-,N/A,,Clear,190,2014-02-14 14:56:00
9:56 AM,52.0,36.0,54,29.96,10.0,South,8.1,-,N/A,,Clear,190,2014-02-14 15:56:00
10:56 AM,55.9,36.0,47,29.95,10.0,South,10.4,16.1,N/A,,Clear,190,2014-02-14 16:56:00
11:56 AM,57.9,35.1,42,29.93,10.0,SSW,10.4,-,N/A,,Clear,210,2014-02-14 17:56:00
12:56 PM,59.0,35.1,41,29.90,10.0,SW,10.4,16.1,N/A,,Clear,230,2014-02-14 18:56:00
1:56 PM,60.1,32.0,35,29.87,10.0,SW,13.8,17.3,N/A,,Clear,220,2014-02-14 19:56:00
2:56 PM,60.1,33.1,36,29.85,10.0,SSW,9.2,19.6,N/A,,Clear,200,2014-02-14 20:56:00
3:56 PM,61.0,34.0,36,29.83,10.0,SSW,8.1,-,N/A,,Clear,200,2014-02-14 21:56:00
4:56 PM,59.0,37.0,44,29.81,10.0,South,9.2,-,N/A,,Clear,190,2014-02-14 22:56:00
5:56 PM,57.0,35.1,44,29.82,10.0,SSW,11.5,18.4,N/A,,Clear,210,2014-02-14 23:56:00
6:56 PM,55.0,37.0,51,29.83,10.0,SW,10.4,21.9,N/A,,Clear,220,2014-02-15 00:56:00
7:56 PM,55.0,43.0,64,29.76,10.0,SSW,11.5,21.9,N/A,,Overcast,210,2014-02-15 01:56:00
8:56 PM,55.9,46.9,72,29.74,10.0,SSW,13.8,26.5,N/A,,Overcast,210,2014-02-15 02:56:00
9:42 PM,51.8,44.6,76,29.82,2.5,WNW,19.6,32.2,0.10,Rain,Heavy Rain,290,2014-02-15 03:42:00
9:56 PM,48.9,45.0,86,29.82,6.0,WNW,12.7,19.6,0.13,Rain,Light Rain,300,2014-02-15 03:56:00
10:56 PM,50.0,46.9,89,29.82,10.0,WNW,13.8,19.6,0.01,,Overcast,290,2014-02-15 04:56:00
11:02 PM,50.0,46.4,87,29.83,10.0,WNW,13.8,20.7,N/A,,Overcast,290,2014-02-15 05:02:00
11:27 PM,50.0,46.4,87,29.84,10.0,WNW,11.5,23.0,N/A,,Overcast,300,2014-02-15 05:27:00
11:56 PM,50.0,41.0,71,29.85,10.0,NW,15.0,34.5,N/A,,Overcast,320,2014-02-15 05:56:00